Location: Degersen
(52.2871°N, 9.5716°E)
Time: 00:46:01
(UTC+00:00)

Landsat 7 - Pass Details

Date: 20 January 2026
Orbit: 680 x 682 km, 97.9° (Epoch: 18 February)

Event Time Altitude Azimuth Distance (km) Brightness Sun altitude
Rises 06:20:25 0° 11° (NNE) 3,056 7.0 -8.8°
Reaches altitude 10° 06:22:41 10° 8° (N) 2,136 6.2 -8.5°
Maximum altitude 06:27:16 61° 290° (WNW) 776 3.8 -7.8°
Drops below altitude 10° 06:31:51 10° 210° (SSW) 2,119 6.2 -7.2°
Sets 06:34:05 0° 207° (SSW) 3,029 7.1 -6.9°
